NOAA 16 DEB, 41264

Orbit data source: Space-Track

NOAA 16 DEB, 41264 is space debris in SSO originally from a launch on Thu, 21 Sep 2000 UTC launched from the Air Force Western Test Range (AFWTR). Debris objects in space refer to the collection of defunct objects orbiting the Earth. Examples of debris include non-operational satellites, rocket bodies, and fragments generated from explosions, collisions, or faulty payload assembly.

Loading next visibility...
Identifier
41264, 2000-055FQ
Orbit
SSO
Country
Flag of USUS
Related business
Manufacturer
Unknown
Mission
Spacecraft
Bus & Motor
Unknown
Mass
Unknown
Launch date (UTC)
2000-09-21 (26 years ago)
Launch vehicle
Unknown
Launch site
Air Force Western Test Range (AFWTR)
Object type
Payload
Rocket body
Debris
Shape & HBR
Unknown shape, 0.1 m
Radar Cross Section
Medium (>0.1 m² and <1 m²)

Expand to show TLE details & history
Last TLE update: 17 hours ago

TLE from 17 hours ago
0 NOAA 16 DEB
1 41264U 00055FQ  26253.99973797  .00001813  00000-0  74984-3 0  9993
2 41264  98.6213 308.1726 0003513 175.8475 184.2736 14.27886803554073
Epoch: 2026-09-10T23:59Z
TLE epoch observation values (Epoch: 2026-09-10T23:59:37.360Z)
Latitude
-0.00002°
Longitude
-41.76245°
Altitude
804.246 km
Speed
7.45 km/s
True Right ascension
20h 32m 41s
True Declination
0° 00' 00"
Sunlit
Object was in full shadow at epoch
Visualization orbit readout
Latitude
Unknown
Longitude
Unknown
Altitude
Unknown
Speed
Unknown
Apparent Right ascension
Unknown
Apparent Declination
Unknown
Sunlit
N/A
Visualization observer readout
Local Sidereal Time
09:51:43
Azimuth
Unknown
Elevation
Unknown
Doppler factor
Unknown
Orbital elements
Apogee altitude
798.467 km
Perigee altitude
793.427 km
Semi-major axis
7,174.084 km
Eccentricity
0.00035
Inclination
98.6213°
RAAN
308.1726°
Arg. of periapsis
175.8475°
True anomaly
184.2706°
Mean anomaly
184.2736°
Eccentric anomaly
184.2721°
Mean motion
3.57185 °/min
Orbital period
100.79 mins
BSTAR
0.00074984
Loading maneuver chart data...
Computing Atmospheric mass density...
Loading historical data...
Loading historical data...
Loading historical data...
Loading historical data...
Loading historical data...
Loading historical data...
Loading historical data...

Documentation

Showing up to 5 results
|